STARLINK-31751 (59574 NORAD) Tracking and Keplerian Element Data

This shows tracking and keplerian element data for the satellite.

Feedback or suggestion? Click here.




ElementValue
Catalog59574
NameSTARLINK-31751
Epoch Orbit830
Epoch Day160.09633021
Epoch Year2024
RAAN54.1129
Inclination42.9991
Eccentricity0.000126
Argument of Perigee267.799
Mean Anonmoly92.2723
Mean Motion15.41625992
Decay Rate0.00037092
L11 59574U 24076L 24160.09633021 .00037092 00000+0 86392-3 0 9997
L22 59574 42.9991 54.1129 0001260 267.7990 92.2723 15.41625992 8307



Live tracking and technical data element details for STARLINK-31751 (NORAD 59574). STARLINK-31751 can be tracked NOW for your location showing map with azimuth and elevation plus other details from your city location.







IsCatalogInMostPopularTable: catalog: 59574, numindb: 12
Update: records affected: 1



GetName: 59574 STARLINK-31751

Hit Count: updated at: Fri, 14 Jun 2024 19:26:31 GMT